Weather History for KOGA - September, 2013

Change the Weather History Date:

Monday, September 16, 2013

  Actual Average Record
Temperature  
Mean Temperature 57 °F -  
Max Temperature 59 °F 76 °F 98 °F (1990)
Min Temperature 55 °F 46 °F 35 °F (1951)
Degree Days  
Heating Degree Days 8    
Growing Degree Days 7 (Base 50)    
Moisture  
Dew Point 53 °F    
Average Humidity 88    
Maximum Humidity 94    
Minimum Humidity 78    
Precipitation  
Precipitation 0.00 in - - ()
Sea Level Pressure  
Sea Level Pressure 30.22 in    
Wind  
Wind Speed 9 mph (SE)    
Max Wind Speed 13 mph    
Max Gust Speed 18 mph    
Visibility 9 miles    
Events      
Averages and records for this station are not official NWS values.
T = Trace of Precipitation, MM = Missing Value Source: NWS Daily Summary

Daily Weather History Graph

Daily Weather History Graph

Search for Another Location

Airport or City:

Trip Planner

Search our weather history database for the weather conditions in past years. The results will help you decide how hot, cold, wet, or windy it might be!

Date:

Astronomy

Sep. 16, 2013 Rise Set
Actual Time 6:28 AM MDT 6:54 PM MDT
Civil Twilight 6:01 AM MDT 7:21 PM MDT
Nautical Twilight 5:28 AM MDT 7:54 PM MDT
Astronomical Twilight 4:55 AM MDT 8:27 PM MDT
Moon 5:05 PM MDT (9/16) 3:15 AM MDT (9/16)
Length of Visible Light 13h 20m
Length of Day
12h 25m
Waxing Gibbous, 90% of the Moon is Illuminated
Sep 16
Waxing Gibbous
Sep 19
Full
Sep 26
Last Quarter
Oct 4
New
Oct 11
First Quarter

Hourly Weather History & Observations

Time (MDT) Temp. Dew Point Humidity Pressure Visibility Wind Dir Wind Speed Gust Speed Precip Events Conditions
12:15 AM 58.6 °F 53.1 °F 82% 30.30 in 10.0 mi East 9.2 mph - N/A   Overcast
12:35 AM 58.5 °F 52.9 °F 82% 30.30 in 10.0 mi East 10.4 mph 16.1 mph N/A   Overcast
12:55 AM 58.3 °F 52.9 °F 82% 30.30 in 10.0 mi East 8.1 mph - N/A   Overcast
1:15 AM 58.1 °F 53.1 °F 83% 30.30 in 10.0 mi East 10.4 mph - N/A   Overcast
1:35 AM 57.6 °F 53.4 °F 86% 30.29 in 10.0 mi East 10.4 mph - N/A   Overcast
1:55 AM 57.4 °F 53.6 °F 87% 30.29 in 10.0 mi East 10.4 mph - N/A   Overcast
2:15 AM 57.4 °F 53.4 °F 87% 30.29 in 10.0 mi East 9.2 mph - N/A   Overcast
2:35 AM 56.8 °F 54.0 °F 90% 30.28 in 7.0 mi East 6.9 mph - N/A   Drizzle
2:55 AM 57.0 °F 53.6 °F 88% 30.28 in 10.0 mi ESE 8.1 mph - N/A   Overcast
3:15 AM 56.7 °F 52.7 °F 87% 30.28 in 10.0 mi ESE 8.1 mph - N/A   Overcast
3:35 AM 55.6 °F 52.7 °F 90% 30.28 in 7.0 mi ESE 9.2 mph - N/A   Overcast
3:55 AM 55.4 °F 52.7 °F 91% 30.28 in 7.0 mi ESE 6.9 mph - N/A   Overcast
4:15 AM 55.4 °F 52.7 °F 91% 30.28 in 7.0 mi ESE 5.8 mph - N/A   Overcast
4:35 AM 55.4 °F 52.3 °F 89% 30.28 in 10.0 mi ESE 10.4 mph - N/A   Overcast
4:55 AM 55.4 °F 52.3 °F 89% 30.29 in 10.0 mi East 6.9 mph - N/A   Overcast
5:15 AM 55.4 °F 52.7 °F 91% 30.29 in 10.0 mi ESE 4.6 mph - N/A   Overcast
5:35 AM 55.4 °F 52.7 °F 91% 30.29 in 10.0 mi ESE 5.8 mph - N/A   Overcast
5:55 AM 55.4 °F 52.7 °F 91% 30.29 in 10.0 mi ESE 5.8 mph - N/A   Overcast
6:15 AM 55.4 °F 52.7 °F 91% 30.29 in 10.0 mi ESE 6.9 mph - N/A   Overcast
6:35 AM 55.6 °F 52.7 °F 90% 30.29 in 10.0 mi SE 8.1 mph - N/A   Overcast
6:55 AM 55.6 °F 52.7 °F 90% 30.29 in 10.0 mi ESE 8.1 mph - N/A   Overcast
7:15 AM 55.6 °F 52.7 °F 90% 30.29 in 10.0 mi SE 5.8 mph - N/A   Overcast
7:35 AM 55.6 °F 52.7 °F 90% 30.29 in 10.0 mi SE 5.8 mph - N/A   Overcast
7:55 AM 55.8 °F 52.9 °F 90% 30.29 in 10.0 mi SSE 6.9 mph - N/A   Overcast
8:15 AM 55.8 °F 52.7 °F 89% 30.29 in 10.0 mi SE 10.4 mph - N/A   Overcast
8:35 AM 55.8 °F 52.5 °F 89% 30.29 in 10.0 mi SSE 10.4 mph - N/A   Overcast
8:55 AM 55.8 °F 52.3 °F 88% 30.29 in 10.0 mi SE 5.8 mph - N/A   Overcast
9:15 AM 56.7 °F 52.2 °F 85% 30.28 in 10.0 mi SSE 8.1 mph - N/A   Overcast
9:35 AM 57.0 °F 52.2 °F 84% 30.28 in 10.0 mi SE 6.9 mph - N/A   Overcast
9:55 AM 57.7 °F 51.6 °F 80% 30.28 in 10.0 mi SSE 6.9 mph - N/A   Overcast
10:15 AM 58.1 °F 51.6 °F 79% 30.28 in 10.0 mi SE 9.2 mph - N/A   Overcast
10:35 AM 58.3 °F 51.8 °F 79% 30.28 in 10.0 mi South 8.1 mph - N/A   Overcast
10:55 AM 59.0 °F 52.2 °F 78% 30.27 in 10.0 mi South 10.4 mph - N/A   Overcast
11:15 AM 59.0 °F 52.3 °F 79% 30.27 in 10.0 mi South 10.4 mph - N/A   Overcast
11:35 AM 58.3 °F 52.0 °F 80% 30.26 in 10.0 mi South 6.9 mph - N/A   Overcast
11:55 AM 57.4 °F 52.2 °F 83% 30.26 in 10.0 mi South 11.5 mph - N/A   Overcast
12:15 PM 57.7 °F 51.8 °F 81% 30.25 in 10.0 mi South 6.9 mph - N/A   Overcast
12:35 PM 57.7 °F 52.5 °F 83% 30.25 in 10.0 mi SSE 6.9 mph - N/A   Overcast
12:55 PM 58.6 °F 52.7 °F 81% 30.24 in 10.0 mi SE 5.8 mph - N/A   Overcast
1:15 PM 58.3 °F 52.9 °F 82% 30.23 in 10.0 mi SSE 9.2 mph - N/A   Overcast
1:35 PM 58.3 °F 53.1 °F 83% 30.23 in 10.0 mi SSE 10.4 mph - N/A   Overcast
1:55 PM 57.7 °F 53.2 °F 85% 30.22 in 10.0 mi SSE 9.2 mph - N/A   Overcast
2:15 PM 58.1 °F 53.1 °F 83% 30.22 in 10.0 mi South 11.5 mph - N/A   Overcast
2:35 PM 58.3 °F 53.2 °F 83% 30.21 in 10.0 mi South 10.4 mph - N/A   Overcast
2:55 PM 58.1 °F 53.8 °F 86% 30.20 in 10.0 mi SSE 8.1 mph - N/A   Overcast
3:15 PM 58.1 °F 53.6 °F 85% 30.20 in 10.0 mi SSE 10.4 mph - N/A   Overcast
3:35 PM 58.1 °F 53.6 °F 85% 30.18 in 10.0 mi SSE 8.1 mph - N/A   Overcast
3:55 PM 58.3 °F 53.4 °F 84% 30.18 in 10.0 mi South 8.1 mph - N/A   Overcast
4:15 PM 57.6 °F 54.1 °F 88% 30.18 in 10.0 mi SE 9.2 mph - N/A   Overcast
4:35 PM 57.7 °F 54.0 °F 87% 30.17 in 10.0 mi SSE 9.2 mph - N/A   Overcast
4:55 PM 57.2 °F 54.0 °F 89% 30.17 in 7.0 mi SE 10.4 mph - N/A   Overcast
5:15 PM 56.5 °F 54.0 °F 91% 30.16 in 3.0 mi SSE 10.4 mph - N/A   Overcast
5:35 PM 56.3 °F 54.0 °F 92% 30.15 in 2.5 mi SSE 9.2 mph - N/A   Overcast
5:55 PM 56.3 °F 54.0 °F 92% 30.15 in 4.0 mi SSE 9.2 mph - N/A   Overcast
6:15 PM 56.3 °F 54.0 °F 92% 30.14 in 4.0 mi SSE 11.5 mph - N/A   Overcast
6:35 PM 56.3 °F 54.0 °F 92% 30.14 in 5.0 mi SSE 9.2 mph - N/A   Overcast
6:55 PM 55.9 °F 53.8 °F 92% 30.13 in 7.0 mi SSE 9.2 mph - N/A   Overcast
7:15 PM 56.3 °F 53.8 °F 91% 30.13 in 10.0 mi SSE 6.9 mph - N/A   Overcast
7:35 PM 56.5 °F 54.0 °F 91% 30.14 in 10.0 mi SSE 9.2 mph - N/A   Overcast
7:55 PM 56.3 °F 54.0 °F 92% 30.14 in 7.0 mi SE 8.1 mph - N/A   Overcast
8:15 PM 56.3 °F 54.1 °F 92% 30.14 in 7.0 mi SE 8.1 mph - N/A   Overcast
8:35 PM 56.3 °F 54.1 °F 92% 30.14 in 7.0 mi SSE 6.9 mph - N/A   Overcast
8:55 PM 56.3 °F 54.5 °F 94% 30.14 in 5.0 mi SSE 10.4 mph - N/A   Overcast
9:15 PM 56.3 °F 54.5 °F 94% 30.12 in 7.0 mi SE 9.2 mph - N/A   Overcast
9:35 PM 56.3 °F 54.1 °F 92% 30.12 in 10.0 mi SSE 9.2 mph - N/A   Overcast
9:55 PM 56.5 °F 54.3 °F 92% 30.12 in 10.0 mi SSE 12.7 mph 16.1 mph N/A   Overcast
10:15 PM 56.5 °F 54.5 °F 93% 30.12 in 10.0 mi SSE 9.2 mph - N/A   Overcast
10:35 PM 56.5 °F 54.5 °F 93% 30.12 in 10.0 mi SSE 12.7 mph 18.4 mph N/A   Overcast
10:55 PM 56.3 °F 54.5 °F 94% 30.12 in 10.0 mi South 12.7 mph - N/A   Overcast
11:15 PM 56.5 °F 54.7 °F 94% 30.12 in 10.0 mi South 8.1 mph - N/A   Overcast
11:35 PM 56.5 °F 54.7 °F 94% 30.11 in 7.0 mi South 11.5 mph - N/A   Overcast
11:55 PM 56.8 °F 55.0 °F 94% 30.11 in 10.0 mi South 9.2 mph - N/A   Overcast